GFSSW_sfc_30mbdewp_213.txt.gz
Dewpoint
49 49 49 50 50 52 53 52 51 50 50 53 55 56 56 55 55 52 49 50 50 52 53 53 54 57 57 52 49 46 43 40 39 37 35 35 30 34 33 32 32 33 43 49 53
49 49 49 49 49 50 49 50 51 52 51 50 52 53 56 55 52 48 48 49 52 52 53 52 53 55 52 50 48 44 42 41 41 40 35 35 32 33 32 31 34 47 49 51 51
45 45 46 46 46 48 49 49 49 49 50 51 49 49 53 55 46 43 53 52 55 52 52 52 54 53 49 48 45 43 41 42 41 38 37 35 33 34 32 31 31 47 49 50 49
44 47 47 48 48 48 47 47 47 47 47 48 51 48 51 52 32 48 48 49 51 52 49 48 52 49 46 45 45 42 42 43 42 40 37 35 36 33 32 33 36 48 49 49 47
45 46 47 48 46 46 47 46 46 46 48 48 49 51 48 46 43 44 46 53 53 52 49 47 49 49 44 42 43 43 42 42 42 42 38 37 35 35 33 33 38 48 48 47 46
46 46 46 46 46 45 45 45 45 45 46 46 47 49 47 36 43 44 43 51 52 52 51 49 50 49 46 42 40 42 42 41 41 40 38 37 36 36 35 33 40 47 47 46 44
45 46 46 45 45 44 44 44 44 44 45 45 46 46 44 40 41 44 45 44 52 52 52 53 52 47 46 43 41 41 40 41 40 39 37 37 35 35 36 33 42 45 45 44 43
45 45 45 45 44 44 44 43 43 43 43 44 45 44 38 41 43 42 37 42 48 52 52 53 52 47 44 42 39 35 36 36 38 39 39 38 35 37 37 35 37 43 43 42 42
44 43 42 44 44 44 44 44 43 43 43 43 42 41 34 40 41 39 42 42 43 51 52 52 49 44 42 40 36 35 32 34 35 38 38 37 35 37 38 36 32 36 41 41 40
42 42 42 43 43 43 44 44 43 41 39 39 40 37 37 32 35 37 39 43 42 47 47 47 45 41 41 38 30 31 30 32 33 34 37 36 36 34 35 36 33 31 35 39 39
43 43 42 43 43 43 43 42 33 31 36 34 34 36 37 37 35 37 38 38 40 40 40 44 38 35 37 39 35 31 29 29 30 32 32 36 36 36 35 33 34 32 31 36 38
42 42 43 43 43 43 43 39 36 39 32 35 34 33 32 32 28 28 42 38 37 34 39 38 34 37 37 37 37 34 32 29 28 29 31 34 35 36 36 35 32 33 32 34 37
41 42 43 43 43 42 39 38 42 38 31 30 31 30 31 30 28 27 40 39 34 33 33 33 32 36 34 34 35 35 32 29 28 24 22 28 29 31 32 36 34 30 34 33 35
41 43 44 44 38 39 37 39 41 39 24 22 29 29 28 29 27 29 33 39 37 31 30 34 34 34 32 31 33 30 32 30 29 25 28 23 23 22 27 27 33 33 31 33 34
43 43 43 43 41 38 37 40 41 37 10 14 25 35 33 26 26 27 38 40 35 33 33 30 31 33 31 31 32 30 31 29 29 23 22 21 15 17 19 18 24 32 30 31 33
44 44 44 42 40 39 40 40 37 20 7 14 23 21 25 32 24 34 37 39 36 35 32 31 34 32 32 32 31 32 32 33 31 28 24 24 21 22 21 20 19 27 30 29 31
44 44 43 42 36 41 41 35 18 13 14 18 19 19 19 30 25 24 27 31 28 27 28 30 31 29 30 30 31 33 32 26 25 24 21 23 23 23 22 20 18 22 30 28 29
45 44 42 37 39 40 36 21 11 12 20 21 20 21 20 23 30 24 25 29 32 30 29 24 23 30 31 27 28 32 31 26 18 19 20 20 18 20 23 22 16 21 27 28 26
44 37 33 39 41 40 29 15 14 19 21 22 23 19 24 26 29 28 25 24 30 31 27 26 22 30 30 26 28 30 28 25 18 20 16 17 16 17 18 18 16 15 22 30 25
40 36 37 41 42 36 24 18 20 22 21 23 22 26 21 22 25 27 23 27 27 31 31 31 24 27 28 28 26 29 30 22 20 14 12 15 14 13 14 15 14 13 19 27 29
39 30 36 38 39 30 19 19 23 24 22 25 24 23 22 24 26 27 24 29 30 30 32 33 27 25 26 24 23 24 28 27 23 20 17 13 13 13 14 14 13 14 16 24 25
34 24 33 37 26 25 22 23 25 22 24 24 27 25 24 24 25 27 27 27 31 30 27 33 29 23 24 21 19 19 26 26 22 20 19 18 16 11 12 12 15 15 15 18 27
29 27 32 34 21 22 24 24 24 22 23 23 22 23 24 23 23 26 27 32 30 30 27 29 27 20 22 24 19 17 19 26 22 22 17 13 14 12 14 16 16 15 17 23 29
30 23 26 30 30 26 24 23 23 26 27 25 24 22 23 24 26 23 25 31 31 33 33 28 28 20 15 17 18 16 17 19 21 18 17 17 15 12 13 16 17 18 20 25 29
30 25 26 21 25 24 25 27 24 24 28 26 24 23 25 24 23 25 29 30 32 35 34 32 22 22 21 21 18 17 16 17 16 19 17 16 17 17 15 15 17 18 20 25 27
27 28 29 27 25 23 27 23 25 25 28 26 26 28 27 26 29 27 29 30 28 33 32 32 26 24 20 23 22 18 18 18 18 18 20 18 16 16 15 16 17 18 20 22 26
34 34 33 25 27 26 26 23 22 26 28 30 29 29 25 31 32 34 34 33 33 31 30 30 25 22 18 22 21 20 22 21 20 19 18 17 20 20 16 16 17 18 20 21 23

GFSSW_sfc_30mbdewp_219.txt.gz
Dewpoint
46 45 46 49 49 49 49 49 48 48 49 48 48 49 52 51 51 52 48 49 50 51 50 51 52 54 56 54 53 48 43 38 37 38 38 37 33 32 33 37 35 40 50 54 60
45 48 47 45 46 49 48 47 46 47 47 47 46 48 49 52 49 46 49 50 50 50 53 50 50 52 52 51 52 47 41 40 41 40 37 38 35 33 33 37 41 46 52 59 59
46 49 48 47 47 47 46 46 46 45 45 44 45 46 48 51 43 39 41 48 53 52 51 52 51 50 49 50 50 47 41 41 42 42 39 37 35 35 32 35 40 41 54 57 58
47 48 47 47 47 47 47 46 44 43 44 44 43 45 47 47 29 39 51 50 48 50 50 51 51 47 47 46 49 44 45 43 42 43 42 40 38 34 33 33 37 53 56 56 56
47 46 44 45 44 43 43 43 43 44 43 44 44 43 44 40 39 41 44 43 42 47 49 50 49 47 43 45 47 46 44 45 44 44 43 43 40 37 35 36 49 55 56 55 55
46 44 45 44 43 42 42 42 41 41 41 41 41 43 41 34 39 40 41 41 42 45 51 51 47 48 46 45 45 45 45 43 44 44 43 41 39 37 35 47 52 55 55 55 55
45 45 45 43 43 42 42 42 42 42 43 43 42 41 39 35 38 38 38 37 40 39 38 50 49 47 48 43 45 43 43 44 42 42 43 40 39 36 35 48 50 53 54 54 54
44 44 43 42 41 43 42 42 42 43 43 44 43 41 36 39 39 38 37 37 39 38 37 39 49 47 46 46 43 41 41 38 41 41 41 40 36 38 36 46 48 49 49 51 50
42 43 43 42 42 42 42 42 43 43 44 44 42 39 32 37 37 39 38 36 37 37 38 39 48 44 44 42 39 40 34 36 37 40 40 39 37 38 37 43 45 47 48 47 46
44 42 42 42 43 43 42 43 41 40 38 38 40 35 36 32 36 37 38 39 37 36 33 39 44 40 39 37 30 35 33 35 35 38 39 37 37 36 37 39 41 46 46 46 45
42 42 43 44 44 43 43 40 31 31 35 30 29 33 32 36 37 35 33 32 35 38 30 38 36 32 34 38 36 36 35 34 36 37 38 38 37 37 37 36 37 43 45 45 45
43 44 45 45 45 43 40 36 37 39 30 32 33 34 34 35 29 28 31 28 33 32 34 34 32 32 34 37 37 35 34 33 33 36 37 37 37 37 36 35 36 37 43 44 44
44 44 45 45 44 40 39 37 41 40 31 29 30 30 30 33 30 29 28 28 27 32 32 29 34 33 34 35 35 36 35 33 30 29 29 31 31 34 37 38 35 36 37 43 43
44 45 45 45 37 40 35 38 41 38 23 18 20 30 29 31 28 31 29 31 33 30 32 30 32 34 32 32 37 34 37 35 30 28 28 29 25 28 31 35 37 35 34 38 41
45 44 44 44 41 38 37 41 41 34 1 10 18 33 23 29 27 31 33 33 30 32 29 26 29 31 33 31 35 34 37 36 33 29 26 23 26 26 26 31 34 37 34 33 39
44 44 43 42 41 40 41 39 30 12 2 16 20 20 21 26 32 35 32 35 35 30 31 28 33 30 34 37 36 36 36 35 35 32 26 23 26 24 22 29 33 35 37 34 34
44 44 43 43 37 41 38 25 12 8 15 17 19 20 22 26 28 31 30 30 27 23 23 29 29 35 32 35 38 37 33 25 24 24 23 25 22 25 23 21 29 33 33 35 34
44 42 38 40 41 40 26 15 3 9 16 20 21 22 22 25 26 30 28 24 31 29 25 22 21 31 35 33 32 32 32 25 18 20 22 24 23 23 24 25 24 22 24 27 33
43 38 38 36 40 35 23 8 12 16 21 21 23 22 20 22 26 28 24 25 31 31 24 25 20 31 33 33 35 31 29 27 22 20 20 22 20 20 20 20 24 25 24 23 26
39 35 35 36 39 28 17 18 17 20 23 25 21 23 20 23 22 23 27 31 28 32 30 28 24 30 31 32 32 33 34 27 25 18 15 17 17 18 16 16 16 17 19 24 31
34 27 33 36 32 23 17 19 21 24 24 24 23 23 23 23 22 24 27 31 33 32 32 31 28 27 30 29 29 30 30 29 26 22 14 13 15 18 14 12 13 13 15 19 29
29 17 28 31 20 19 20 21 25 24 25 24 26 26 24 23 23 24 25 29 35 35 30 32 28 25 26 27 27 25 28 25 22 23 18 16 11 15 13 15 16 15 16 18 28
28 26 29 28 17 19 23 23 24 24 24 27 25 24 27 24 22 23 27 31 35 33 32 33 26 20 22 22 27 23 28 24 22 21 18 14 11 13 15 16 17 17 20 26 29
26 20 23 25 29 25 24 21 23 26 26 26 27 27 26 24 25 24 27 31 33 35 35 33 28 23 17 19 24 24 25 25 23 18 18 17 12 16 14 15 17 19 25 29 31
27 24 27 20 21 25 25 24 23 21 26 26 25 24 25 23 22 24 28 28 29 33 34 31 23 21 23 21 20 25 23 23 23 21 17 17 15 18 16 14 16 19 27 29 29
24 25 27 26 25 23 23 22 23 22 24 22 24 25 26 25 26 23 26 27 27 30 31 32 24 22 21 22 19 20 26 27 25 20 19 19 18 19 16 16 17 18 27 28 29
33 32 30 21 22 22 21 23 22 23 20 26 24 26 25 27 26 27 29 30 31 30 29 29 27 20 18 21 19 18 23 22 19 20 23 21 21 17 16 16 16 17 22 28 29

GFSSW_sfc_30mbdewp_225.txt.gz
Dewpoint
47 46 50 48 46 47 47 45 44 46 47 47 44 42 43 44 48 46 43 44 47 49 52 52 50 51 52 53 54 52 43 38 38 38 36 36 36 33 37 38 43 48 50 54 61
47 46 48 46 44 45 45 43 42 42 42 42 43 44 45 44 44 39 40 45 46 48 47 49 47 49 49 49 52 48 43 40 40 40 37 37 34 31 34 37 41 46 52 60 60
48 47 46 46 46 46 44 43 41 41 41 42 41 41 42 44 36 35 50 48 49 47 46 47 49 49 46 48 46 46 42 42 41 40 40 38 35 35 33 35 39 41 52 58 59
46 43 44 45 45 44 42 41 41 41 41 41 42 41 40 42 26 33 46 43 43 41 41 41 48 45 42 43 46 42 44 44 42 43 41 37 41 39 34 34 36 41 55 57 59
42 44 42 43 44 44 41 41 41 42 42 42 41 43 41 36 36 38 38 39 39 38 38 47 46 44 38 42 43 42 43 44 44 43 43 44 42 40 38 38 45 50 55 57 58
42 42 44 44 42 42 43 43 42 42 42 43 41 42 42 33 36 37 37 37 35 34 33 38 45 44 40 40 41 43 43 44 45 43 43 42 42 40 38 51 51 54 55 55 56
45 45 44 43 42 43 44 43 43 42 42 42 43 42 39 35 36 37 36 36 37 37 33 32 37 43 44 42 41 42 40 42 43 45 44 45 42 40 42 52 51 53 54 55 55
41 42 43 44 45 44 44 43 43 41 41 41 42 43 36 39 39 38 38 37 38 38 36 36 38 40 42 43 42 39 41 36 40 43 45 44 37 41 43 50 50 52 53 54 55
46 45 44 44 44 44 43 43 41 39 38 36 40 41 33 37 37 38 39 37 37 37 38 38 41 39 43 40 36 39 30 35 36 42 43 43 39 40 40 48 49 50 51 52 53
42 43 44 44 44 44 43 41 39 38 33 35 39 33 31 28 34 36 38 38 37 37 35 33 37 36 37 36 26 30 33 35 33 41 42 42 40 39 40 44 48 50 51 52 52
42 43 45 44 44 43 41 36 30 27 33 31 28 29 30 32 33 31 35 36 33 33 28 31 27 29 33 35 33 29 33 32 36 41 40 41 40 38 40 42 44 49 50 51 51
42 43 44 43 44 43 39 34 37 38 30 32 32 32 33 34 31 30 31 30 29 26 29 29 25 29 33 37 34 33 32 33 35 36 40 39 40 39 39 41 42 45 49 50 49
42 43 43 44 44 39 39 37 41 40 30 26 28 28 28 34 27 26 31 31 29 25 24 22 21 25 27 34 34 34 31 33 31 37 38 38 35 38 39 37 41 43 47 48 48
43 43 43 45 35 39 34 40 41 40 19 11 13 27 30 31 26 31 29 27 27 25 25 25 25 26 27 31 33 29 33 32 34 32 30 36 27 37 38 37 36 39 44 47 47
43 44 43 44 39 35 37 41 40 28 -11 7 15 27 21 21 22 30 34 30 28 26 26 18 29 26 28 29 33 30 30 32 33 33 32 31 30 27 37 37 38 37 38 44 47
44 43 43 40 38 38 41 34 26 4 -11 12 18 19 21 23 25 32 35 35 36 29 30 29 31 30 26 33 28 32 31 31 32 32 26 30 30 26 32 36 37 38 36 40 45
43 43 41 42 34 38 34 22 4 3 11 14 18 21 22 22 23 29 28 29 24 20 20 26 25 28 33 31 34 31 28 22 22 23 21 28 29 29 27 33 36 37 38 37 43
43 42 39 39 37 37 24 11 1 9 15 19 22 22 21 22 24 28 27 25 29 27 23 19 18 25 32 30 28 30 28 21 16 15 23 29 27 28 27 25 31 34 37 36 39
42 36 36 35 37 31 18 11 13 15 20 22 22 20 19 20 24 26 25 25 26 29 22 21 21 26 30 33 30 31 28 30 26 25 24 25 27 24 23 25 24 26 33 36 36
35 31 31 33 35 24 15 17 17 17 21 26 20 22 19 20 20 22 24 29 29 32 33 28 20 27 29 31 33 32 33 27 28 19 19 22 19 19 19 23 23 25 24 34 36
29 21 28 31 28 21 15 17 20 22 24 25 23 22 22 22 22 23 24 26 31 30 33 30 27 27 29 25 24 29 28 30 28 25 18 18 19 19 13 13 15 16 21 23 27
28 12 27 27 19 16 19 21 24 24 25 25 27 26 24 20 22 23 21 24 28 31 28 32 27 22 26 27 31 32 28 30 24 23 19 16 11 14 15 16 16 15 16 16 17
26 25 27 26 17 20 22 23 23 23 23 24 23 28 25 22 20 21 23 25 26 27 29 31 26 20 22 27 29 31 31 31 31 28 25 14 12 15 16 17 20 20 23 27 25
23 15 21 25 25 22 21 20 21 22 23 22 23 25 18 20 23 21 23 23 22 25 32 33 28 23 16 16 24 25 29 31 29 25 24 14 12 13 15 16 18 24 27 30 31
24 23 26 14 19 23 21 20 17 15 20 22 23 21 19 18 20 20 21 21 22 28 27 30 24 26 23 23 24 26 27 28 25 20 16 14 15 15 15 16 19 27 29 30 30
24 26 26 23 23 19 19 16 18 18 21 14 20 19 19 20 21 21 22 20 21 25 26 30 24 25 24 22 26 25 25 25 22 20 18 16 17 19 16 17 20 27 28 29 29
31 30 27 19 19 15 18 20 18 22 18 22 21 20 18 21 23 22 23 25 27 25 24 27 24 21 20 21 25 23 25 26 25 21 21 17 18 17 16 16 17 23 27 28 29

GFSSW_sfc_30mbdewp_228.txt.gz
Dewpoint
49 47 48 48 46 46 47 46 42 42 41 42 42 42 43 46 47 41 36 37 39 46 49 44 48 49 50 49 53 52 43 39 37 37 36 37 37 35 38 36 40 47 47 52 62
48 47 44 44 45 45 44 42 41 41 41 41 41 42 42 42 40 37 36 51 49 46 45 44 42 44 45 46 47 48 41 40 38 38 38 37 35 35 34 37 39 44 51 59 62
44 43 45 42 45 45 44 42 41 41 41 42 42 41 43 43 36 30 47 45 45 46 44 43 42 42 42 43 44 43 42 40 40 40 39 38 35 35 36 37 34 39 50 59 61
43 43 42 45 44 42 42 42 43 42 42 42 42 43 44 41 25 30 48 42 40 37 38 39 41 40 39 39 42 39 42 43 40 41 40 39 38 34 34 35 35 39 52 59 59
43 46 45 45 44 42 43 44 44 43 43 43 42 41 40 36 33 34 36 37 37 34 34 37 39 38 36 37 39 40 38 43 44 45 43 39 40 38 36 36 39 40 53 59 60
42 42 43 44 44 45 44 43 43 43 43 42 42 43 39 31 32 33 33 37 35 34 33 33 41 36 36 36 36 38 40 40 43 43 43 42 41 41 39 45 44 44 50 57 59
46 47 46 45 44 44 44 44 43 42 42 42 42 42 38 33 34 35 35 35 35 35 34 33 35 39 38 35 37 38 39 37 41 43 45 43 41 40 40 47 47 46 49 55 58
42 42 43 44 45 44 44 43 41 42 40 38 39 37 31 36 37 37 36 35 36 37 36 35 38 37 41 37 40 35 37 37 37 39 45 46 38 39 42 45 45 48 50 52 56
43 43 43 44 44 44 43 41 40 39 39 34 36 37 28 35 31 34 37 34 36 37 36 37 38 38 40 38 33 34 26 29 32 38 40 44 39 38 41 43 44 48 50 52 55
43 43 43 44 43 43 42 40 38 34 31 35 36 32 30 26 31 32 33 36 34 34 35 34 35 34 36 34 26 25 26 23 25 31 39 40 40 39 40 42 42 47 50 52 54
40 43 42 43 43 44 39 33 27 24 31 29 28 29 28 29 31 29 28 31 33 31 24 29 27 27 33 33 30 27 23 22 26 30 38 38 36 39 39 40 41 46 49 51 53
41 43 44 43 44 43 38 32 36 37 30 29 28 30 31 33 29 24 30 27 26 22 24 25 23 24 30 33 33 33 25 24 26 32 38 36 37 37 39 38 41 43 48 50 52
43 44 44 43 44 38 38 36 41 41 29 25 24 25 27 32 24 23 29 28 26 23 21 20 16 23 28 32 32 34 28 25 26 32 36 35 34 37 40 39 39 43 43 49 51
43 44 43 44 34 39 33 39 40 41 22 7 12 25 27 21 22 28 30 28 28 24 23 21 19 19 23 26 32 28 31 26 26 31 30 35 24 34 36 38 39 43 45 47 51
43 43 43 44 38 34 35 39 39 34 1 9 16 23 21 21 21 29 35 31 28 26 25 17 17 18 18 23 29 31 34 31 31 28 31 32 30 24 33 34 37 40 45 45 46
43 43 43 40 40 38 38 34 31 15 -3 11 16 18 19 21 21 27 32 36 35 30 29 26 29 29 21 26 27 33 34 35 33 32 26 29 28 29 32 32 34 38 41 43 44
44 43 41 41 33 36 37 26 16 8 11 12 16 19 20 19 20 24 28 28 26 22 22 23 24 26 29 22 30 32 31 24 22 23 21 23 29 27 25 32 34 37 38 41 42
44 41 39 39 34 38 30 23 6 13 14 18 20 19 18 19 19 21 24 22 30 27 23 17 14 20 23 21 25 28 30 18 9 15 18 28 27 23 26 30 32 37 38 38 42
40 36 36 36 35 33 26 15 15 16 18 20 19 16 15 17 20 22 20 26 30 30 23 20 17 23 22 27 25 27 25 21 26 26 14 22 24 29 28 28 27 36 38 38 40
35 30 31 31 34 28 24 19 18 18 21 23 18 19 15 17 18 19 23 29 28 31 31 29 22 24 24 26 26 28 26 22 27 21 16 22 21 19 25 26 25 30 36 38 38
30 23 28 30 31 27 20 20 20 21 23 23 22 20 19 19 18 20 22 21 28 27 29 31 27 27 26 24 22 29 28 28 24 23 21 19 22 21 18 21 25 25 29 35 37
29 19 29 29 25 23 22 22 24 21 23 23 25 23 22 15 18 21 21 22 23 22 25 31 29 23 23 30 21 24 29 29 20 23 22 19 15 15 15 16 16 16 23 26 36
28 27 28 30 19 21 21 21 22 18 17 22 18 24 23 12 17 19 20 22 23 22 27 30 27 21 23 28 25 23 30 33 30 30 23 16 13 15 17 18 19 18 19 19 20
28 18 27 29 27 22 18 14 12 15 19 19 19 20 15 14 19 19 20 21 21 24 31 31 28 24 18 18 27 24 28 31 30 25 24 15 12 14 16 18 21 25 27 27 25
29 25 26 19 21 22 23 20 14 12 15 17 15 10 14 16 17 20 18 20 20 25 25 28 24 27 24 22 27 29 30 31 29 25 18 15 14 15 16 19 24 28 29 30 29
26 26 27 23 22 20 20 18 17 14 17 12 11 12 14 15 16 18 20 19 20 23 24 27 23 26 24 23 23 27 31 31 28 23 20 18 17 17 16 21 26 27 29 29 29
32 32 27 22 20 18 19 20 19 19 17 18 16 16 12 16 17 18 20 21 23 23 23 25 26 23 21 25 23 23 26 28 23 24 23 22 20 17 17 19 23 27 29 29 29